Weather History for Honolulu, HI

Change the Weather History Date:

Monday, December 3, 2012

  Actual Average Record
Temperature  
Mean Temperature 78 °F 76 °F  
Max Temperature 82 °F 82 °F 87 °F (1983)
Min Temperature 73 °F 70 °F 61 °F (1980)
Degree Days  
Heating Degree Days 0 0  
Month to date heating degree days 0 0  
Since 1 July heating degree days 0 0  
Cooling Degree Days 13 11  
Month to date cooling degree days 30 33  
Year to date cooling degree days 4222 4359  
Growing Degree Days 27 (Base 50)    
Moisture  
Dew Point 73 °F    
Average Humidity 84    
Maximum Humidity 94    
Minimum Humidity 74    
Precipitation  
Precipitation T in 0.08 in 3.76 in (1950)
Month to date precipitation T 0.23  
Year to date precipitation 8.59 14.09  
Snow  
Snow 0.00 in - - ()
Month to date snowfall 0.0  
Since 1 July snowfall 0.0  
Snow Depth 0.00 in    
Sea Level Pressure  
Sea Level Pressure 29.95 in    
Wind  
Wind Speed 6 mph (SW)    
Max Wind Speed 15 mph    
Max Gust Speed 18 mph    
Visibility 10 miles    
Events      
T = Trace of Precipitation, MM = Missing Value Source: NWS Daily Summary

Daily Weather History Graph

Daily Weather History Graph

Search for Another Location

Airport:

Trip Planner

Search our weather history database for the weather conditions in past years. The results will help you decide how hot, cold, wet, or windy it might be!

Date:

Astronomy

Dec. 03, 2012 Rise Set
Actual Time 6:54 AM HST 5:49 PM HST
Civil Twilight 6:30 AM HST 6:13 PM HST
Nautical Twilight 6:02 AM HST 6:40 PM HST
Astronomical Twilight 5:35 AM HST 7:07 PM HST
Moon 10:25 PM HST (12/3) 10:41 AM HST (12/3)
Length of Visible Light 11h 42m
Length of Day
10h 54m
Waning Gibbous, 76% of the Moon is Illuminated
Dec 3
Waning Gibbous
Dec 6
Last Quarter
Dec 12
New
Dec 19
First Quarter
Dec 28
Full

Hourly Weather History & Observations

Time (HST) Temp. Heat Index Dew Point Humidity Pressure Visibility Wind Dir Wind Speed Gust Speed Precip Events Conditions
12:53 AM 75.9 °F - 73.0 °F 91% 29.97 in 8.0 mi SSW 9.2 mph - N/A   Mostly Cloudy
1:02 AM 75.2 °F - 73.4 °F 94% 29.96 in 8.0 mi SSW 6.9 mph - N/A   Mostly Cloudy
1:53 AM 75.9 °F - 73.0 °F 91% 29.96 in 8.0 mi SW 5.8 mph - N/A   Partly Cloudy
2:27 AM 75.2 °F - 73.4 °F 94% 29.94 in 8.0 mi SW 4.6 mph - N/A   Mostly Cloudy
2:53 AM 75.9 °F - 73.9 °F 94% 29.93 in 8.0 mi SSW 4.6 mph - N/A   Mostly Cloudy
3:53 AM 75.9 °F - 73.9 °F 94% 29.93 in 9.0 mi SW 3.5 mph - N/A   Overcast
4:00 AM 75.2 °F - 73.4 °F 94% 29.93 in 9.0 mi SW 3.5 mph - N/A   Overcast
4:53 AM 75.9 °F - 73.9 °F 94% 29.92 in 9.0 mi SSW 5.8 mph - N/A   Mostly Cloudy
5:37 AM 75.2 °F - 73.4 °F 94% 29.92 in 10.0 mi SW 5.8 mph - N/A   Mostly Cloudy
5:53 AM 75.9 °F - 73.9 °F 94% 29.92 in 10.0 mi SW 6.9 mph - N/A   Mostly Cloudy
6:53 AM 75.9 °F - 73.9 °F 94% 29.94 in 10.0 mi SW 4.6 mph - N/A   Mostly Cloudy
7:23 AM 75.2 °F - 73.4 °F 94% 29.94 in 10.0 mi SW 8.1 mph - N/A   Scattered Clouds
7:53 AM 77.0 °F - 73.9 °F 90% 29.95 in 10.0 mi SSW 6.9 mph - N/A   Scattered Clouds
8:53 AM 78.1 °F - 73.9 °F 87% 29.97 in 10.0 mi SW 5.8 mph - N/A   Scattered Clouds
9:53 AM 80.1 °F 85.1 °F 75.0 °F 85% 29.98 in 10.0 mi SW 9.2 mph - N/A   Scattered Clouds
10:53 AM 81.0 °F 86.7 °F 75.0 °F 82% 29.97 in 10.0 mi SW 11.5 mph - N/A   Scattered Clouds
11:53 AM 79.0 °F - 75.0 °F 88% 29.96 in 10.0 mi SW 10.4 mph - 0.00 in   Mostly Cloudy
12:53 PM 81.0 °F 85.8 °F 73.0 °F 77% 29.94 in 10.0 mi SSW 12.7 mph - N/A   Scattered Clouds
1:53 PM 81.0 °F 85.2 °F 72.0 °F 74% 29.92 in 10.0 mi SW 10.4 mph - N/A   Scattered Clouds
2:53 PM 81.0 °F 85.8 °F 73.0 °F 77% 29.92 in 10.0 mi SW 10.4 mph - N/A   Scattered Clouds
3:53 PM 80.1 °F 84.2 °F 73.0 °F 79% 29.93 in 10.0 mi SW 9.2 mph - N/A   Mostly Cloudy
4:53 PM 79.0 °F - 73.0 °F 82% 29.94 in 10.0 mi SW 8.1 mph - N/A   Mostly Cloudy
5:53 PM 77.0 °F - 72.0 °F 84% 29.95 in 10.0 mi SW 4.6 mph - N/A   Scattered Clouds
6:53 PM 77.0 °F - 71.1 °F 82% 29.96 in 10.0 mi WNW 4.6 mph - N/A   Scattered Clouds
7:53 PM 75.9 °F - 71.1 °F 85% 29.99 in 10.0 mi Calm Calm - N/A   Scattered Clouds
8:53 PM 75.9 °F - 69.1 °F 79% 30.00 in 10.0 mi Calm Calm - N/A   Scattered Clouds
9:53 PM 73.9 °F - 70.0 °F 87% 30.01 in 10.0 mi Calm Calm - N/A   Scattered Clouds
10:53 PM 75.0 °F - 70.0 °F 84% 30.01 in 10.0 mi Calm Calm - N/A   Mostly Cloudy
11:53 PM 73.9 °F - 70.0 °F 87% 30.00 in 10.0 mi North 3.5 mph - N/A   Scattered Clouds